DAL1942 MDSD-KJFK

Flight info

Callsign DAL1942
Flight time N/A
Altitude 34000
Route LERED4J LERED DCT GTK R763 COUKY/N0465F330 R763 IORIO DCT LETON/M079F340 L451 JAINS/N0460F340 DCT CLOWR/N0460F350 DCT SAGGY DCT CHIEZ Q161 KALDA Q108 SIE CAMRN5
Aircraft A21N/M-SDE3FGHIRWY/LB1

Departure

Time 2026-04-27 17:02
Airport Las Américas International Airport (MDSD)

Arrival

Time N/A
Airport John F. Kennedy International Airport (KJFK)
Time Latitude Longitude Altitude Speed Heading
2026-04-27 16:52 18.42768 -69.67567 48 ft 0 kts 49°
2026-04-27 16:55 18.42769 -69.67567 48 ft 0 kts 49°
2026-04-27 16:55 18.42777 -69.67553 48 ft 3 kts 68°
2026-04-27 16:55 18.42779 -69.67518 49 ft 5 kts 91°
2026-04-27 16:55 18.42781 -69.67477 50 ft 5 kts 77°
2026-04-27 16:56 18.42795 -69.67436 51 ft 5 kts 69°
2026-04-27 16:56 18.42808 -69.67399 53 ft 4 kts 70°
2026-04-27 16:56 18.42826 -69.67361 54 ft 7 kts 53°
2026-04-27 16:56 18.42881 -69.67341 55 ft 11 kts 348°
2026-04-27 16:57 18.42967 -69.67377 55 ft 15 kts 322°
2026-04-27 16:57 18.43069 -69.67440 54 ft 18 kts 340°
2026-04-27 16:57 18.43192 -69.67487 53 ft 19 kts 340°
2026-04-27 16:57 18.43316 -69.67536 52 ft 16 kts 339°
2026-04-27 16:58 18.43414 -69.67531 52 ft 14 kts 19°
2026-04-27 16:58 18.43513 -69.67559 51 ft 15 kts 338°
2026-04-27 16:58 18.43621 -69.67603 51 ft 17 kts 339°
2026-04-27 16:58 18.43738 -69.67650 50 ft 17 kts 339°
2026-04-27 16:59 18.43854 -69.67697 49 ft 18 kts 338°
2026-04-27 16:59 18.43972 -69.67746 48 ft 18 kts 338°
2026-04-27 16:59 18.44080 -69.67790 46 ft 11 kts 339°
2026-04-27 16:59 18.44141 -69.67750 46 ft 10 kts 66°
2026-04-27 17:00 18.44178 -69.67646 50 ft 8 kts 68°
2026-04-27 17:00 18.44203 -69.67566 51 ft 8 kts 95°
2026-04-27 17:00 18.44161 -69.67527 52 ft 7 kts 161°
2026-04-27 17:01 18.44154 -69.67525 52 ft 0 kts 161°
2026-04-27 17:01 18.44035 -69.67482 53 ft 52 kts 160°
2026-04-27 17:01 18.43471 -69.67275 60 ft 118 kts 159°
2026-04-27 17:01 18.42498 -69.66917 68 ft 173 kts 161°
2026-04-27 17:02 18.41299 -69.66483 461 ft 187 kts 160°
2026-04-27 17:02 18.40052 -69.66008 1065 ft 193 kts 158°
2026-04-27 17:02 18.38834 -69.65507 1873 ft 187 kts 153°
2026-04-27 17:02 18.37850 -69.64637 2259 ft 192 kts 122°
2026-04-27 17:03 18.37446 -69.63253 2494 ft 207 kts 92°
2026-04-27 17:03 18.37794 -69.61749 2761 ft 221 kts 66°
2026-04-27 17:03 18.38469 -69.60223 2954 ft 240 kts 70°
2026-04-27 17:03 18.39065 -69.58543 3252 ft 254 kts 72°
2026-04-27 17:04 18.39819 -69.56815 3648 ft 266 kts 52°
2026-04-27 17:04 18.41308 -69.55668 4193 ft 273 kts 19°
2026-04-27 17:04 18.43187 -69.55532 4776 ft 276 kts 349°
2026-04-27 17:04 18.45015 -69.56199 5251 ft 283 kts 338°
2026-04-27 17:05 18.46911 -69.56871 5740 ft 290 kts 342°
2026-04-27 17:05 18.48832 -69.57483 6388 ft 290 kts 343°
2026-04-27 17:05 18.50778 -69.58071 7020 ft 291 kts 344°
2026-04-27 17:05 18.52735 -69.58659 7607 ft 293 kts 343°
2026-04-27 17:06 18.54691 -69.59254 8156 ft 296 kts 343°
2026-04-27 17:06 18.56685 -69.59868 8662 ft 300 kts 342°
2026-04-27 17:06 18.58697 -69.60492 9211 ft 302 kts 342°
2026-04-27 17:06 18.60746 -69.61133 9713 ft 306 kts 342°
2026-04-27 17:07 18.62778 -69.61769 10248 ft 307 kts 342°
2026-04-27 17:07 18.64880 -69.62426 10515 ft 319 kts 341°
2026-04-27 17:07 18.67065 -69.63107 10751 ft 332 kts 342°
2026-04-27 17:07 18.69335 -69.63806 10988 ft 345 kts 342°
2026-04-27 17:08 18.71680 -69.64520 11204 ft 357 kts 342°
2026-04-27 17:08 18.74118 -69.65262 11416 ft 369 kts 342°
2026-04-27 17:08 18.76648 -69.66033 11632 ft 381 kts 342°
2026-04-27 17:08 18.79230 -69.66821 11879 ft 390 kts 342°
2026-04-27 17:09 18.81865 -69.67625 12298 ft 394 kts 342°
2026-04-27 17:09 18.84494 -69.68430 12764 ft 396 kts 342°
2026-04-27 17:09 18.87159 -69.69292 13186 ft 398 kts 339°
2026-04-27 17:09 18.89735 -69.70307 13638 ft 399 kts 335°
2026-04-27 17:10 18.92300 -69.71508 14066 ft 400 kts 333°
2026-04-27 17:10 18.94840 -69.72759 14467 ft 403 kts 332°
2026-04-27 17:10 18.97356 -69.74007 14883 ft 405 kts 332°
2026-04-27 17:10 18.99942 -69.75291 15285 ft 407 kts 332°
2026-04-27 17:11 19.02490 -69.76554 15689 ft 408 kts 332°
2026-04-27 17:11 19.07653 -69.79110 16472 ft 411 kts 332°
2026-04-27 17:11 19.10254 -69.80395 16839 ft 413 kts 332°
2026-04-27 17:12 19.15484 -69.82984 17559 ft 415 kts 332°
2026-04-27 17:12 19.18107 -69.84284 17894 ft 417 kts 332°
2026-04-27 17:12 19.20733 -69.85586 18221 ft 419 kts 332°
2026-04-27 17:13 19.23405 -69.86910 18567 ft 420 kts 332°
2026-04-27 17:13 19.26035 -69.88213 18903 ft 421 kts 332°
2026-04-27 17:13 19.28715 -69.89542 19236 ft 423 kts 331°
2026-04-27 17:13 19.31391 -69.90871 19538 ft 424 kts 331°
2026-04-27 17:14 19.34057 -69.92194 19850 ft 426 kts 332°
2026-04-27 17:14 19.36745 -69.93528 20132 ft 427 kts 331°
2026-04-27 17:14 19.39451 -69.94873 20440 ft 429 kts 332°
2026-04-27 17:14 19.42156 -69.96211 20740 ft 430 kts 331°
2026-04-27 17:15 19.44877 -69.97559 21011 ft 432 kts 332°
2026-04-27 17:15 19.47586 -69.98902 21292 ft 433 kts 332°
2026-04-27 17:15 19.50328 -70.00262 21576 ft 434 kts 332°
2026-04-27 17:15 19.53084 -70.01630 21844 ft 436 kts 331°
2026-04-27 17:16 19.55820 -70.02988 22109 ft 437 kts 331°
2026-04-27 17:16 19.58579 -70.04360 22387 ft 439 kts 331°
2026-04-27 17:16 19.61380 -70.05755 22631 ft 440 kts 331°
2026-04-27 17:16 19.64142 -70.07130 22885 ft 442 kts 330°
2026-04-27 17:17 19.66921 -70.08514 23134 ft 443 kts 330°
2026-04-27 17:17 19.69742 -70.09919 23389 ft 444 kts 330°
2026-04-27 17:17 19.72526 -70.11308 23596 ft 446 kts 330°
2026-04-27 17:18 19.78143 -70.14112 24043 ft 448 kts 330°
2026-04-27 17:18 19.81005 -70.15543 24256 ft 450 kts 330°
2026-04-27 17:18 19.83831 -70.16955 24476 ft 451 kts 330°
2026-04-27 17:18 19.86693 -70.18385 24677 ft 452 kts 330°
2026-04-27 17:19 19.89542 -70.19808 24887 ft 453 kts 330°
2026-04-27 17:19 19.92393 -70.21233 25085 ft 455 kts 330°
2026-04-27 17:19 19.95251 -70.22662 25253 ft 456 kts 330°
2026-04-27 17:19 19.98157 -70.24118 25467 ft 457 kts 330°
2026-04-27 17:20 20.01027 -70.25555 25655 ft 458 kts 329°
2026-04-27 17:20 20.03907 -70.26997 25823 ft 460 kts 329°
2026-04-27 17:20 20.06816 -70.28455 26067 ft 459 kts 329°
2026-04-27 17:20 20.09724 -70.29912 26336 ft 458 kts 329°
2026-04-27 17:21 20.12619 -70.31365 26582 ft 457 kts 329°
2026-04-27 17:21 20.15468 -70.32794 26833 ft 456 kts 329°
2026-04-27 17:21 20.18342 -70.34238 27083 ft 455 kts 328°
2026-04-27 17:21 20.21259 -70.35704 27323 ft 454 kts 329°
2026-04-27 17:22 20.24129 -70.37149 27562 ft 454 kts 328°
2026-04-27 17:22 20.27018 -70.38603 27807 ft 453 kts 328°
2026-04-27 17:22 20.29888 -70.40050 28054 ft 452 kts 328°
2026-04-27 17:22 20.32765 -70.41499 28299 ft 451 kts 328°
2026-04-27 17:23 20.35536 -70.42895 28534 ft 450 kts 328°
2026-04-27 17:23 20.38397 -70.44356 28779 ft 448 kts 327°
2026-04-27 17:23 20.41145 -70.45921 29012 ft 445 kts 323°
2026-04-27 17:23 20.43667 -70.47516 29203 ft 444 kts 322°
2026-04-27 17:24 20.46356 -70.49258 29416 ft 444 kts 322°
2026-04-27 17:24 20.49000 -70.50983 29652 ft 444 kts 321°
2026-04-27 17:24 20.51633 -70.52701 29885 ft 443 kts 321°
2026-04-27 17:24 20.54261 -70.54417 30117 ft 443 kts 321°
2026-04-27 17:25 20.56874 -70.56122 30361 ft 442 kts 321°
2026-04-27 17:25 20.59520 -70.57849 30579 ft 442 kts 321°
2026-04-27 17:25 20.62125 -70.59550 30784 ft 442 kts 321°
2026-04-27 17:25 20.64770 -70.61279 30991 ft 442 kts 320°
2026-04-27 17:26 20.67408 -70.63000 31186 ft 443 kts 320°
2026-04-27 17:26 20.70007 -70.64700 31384 ft 443 kts 320°
2026-04-27 17:26 20.72633 -70.66415 31652 ft 441 kts 320°
2026-04-27 17:26 20.75261 -70.68134 31910 ft 441 kts 320°
2026-04-27 17:27 20.77894 -70.69855 32153 ft 440 kts 319°
2026-04-27 17:27 20.80477 -70.71545 32365 ft 440 kts 319°
2026-04-27 17:27 20.83102 -70.73265 32552 ft 441 kts 319°
2026-04-27 17:27 20.85723 -70.74985 32710 ft 442 kts 319°
2026-04-27 17:28 20.88346 -70.76704 32882 ft 443 kts 319°
2026-04-27 17:28 20.90974 -70.78428 33098 ft 443 kts 319°
2026-04-27 17:28 20.96212 -70.81866 33504 ft 443 kts 319°
2026-04-27 17:29 20.98861 -70.83607 33662 ft 445 kts 319°
2026-04-27 17:29 21.01508 -70.85348 33797 ft 446 kts 319°
2026-04-27 17:29 21.04127 -70.87070 33948 ft 447 kts 319°
2026-04-27 17:30 21.09438 -70.90560 33990 ft 449 kts 319°
2026-04-27 17:30 21.17432 -70.95820 33995 ft 449 kts 319°
2026-04-27 17:31 21.22760 -70.99332 33995 ft 448 kts 319°
2026-04-27 17:31 21.28043 -71.02818 33993 ft 448 kts 319°
2026-04-27 17:32 21.36038 -71.08103 33996 ft 448 kts 319°
2026-04-27 17:33 21.41442 -71.11482 33999 ft 453 kts 323°
2026-04-27 17:33 21.47212 -71.14288 33999 ft 459 kts 330°
2026-04-27 17:34 21.53311 -71.16480 34002 ft 465 kts 334°
2026-04-27 17:34 21.59510 -71.18511 33996 ft 464 kts 334°
2026-04-27 17:35 21.65699 -71.20541 33997 ft 464 kts 334°
2026-04-27 17:35 21.71886 -71.22580 34005 ft 465 kts 334°
2026-04-27 17:36 21.78074 -71.24626 34010 ft 464 kts 334°
2026-04-27 17:36 21.84241 -71.26666 34011 ft 463 kts 334°
2026-04-27 17:37 21.90385 -71.28702 34014 ft 464 kts 334°
2026-04-27 17:37 21.96563 -71.30752 34015 ft 462 kts 334°
2026-04-27 17:38 22.02710 -71.32795 34014 ft 462 kts 334°
2026-04-27 17:38 22.08856 -71.34838 34016 ft 463 kts 334°
2026-04-27 17:39 22.15036 -71.36869 34017 ft 463 kts 335°
2026-04-27 17:39 22.21218 -71.38869 34016 ft 463 kts 335°
2026-04-27 17:40 22.27384 -71.40870 34017 ft 462 kts 335°
2026-04-27 17:40 22.33544 -71.42877 34019 ft 462 kts 335°
2026-04-27 17:41 22.39700 -71.44885 34023 ft 461 kts 335°
2026-04-27 17:41 22.45850 -71.46892 34022 ft 461 kts 335°
2026-04-27 17:42 22.51986 -71.48900 34024 ft 461 kts 335°
2026-04-27 17:42 22.58130 -71.50910 34023 ft 460 kts 335°
2026-04-27 17:43 22.64242 -71.52914 34026 ft 460 kts 334°
2026-04-27 17:43 22.70362 -71.54924 34028 ft 460 kts 334°
2026-04-27 17:44 22.76518 -71.56946 34025 ft 459 kts 335°
2026-04-27 17:44 22.82636 -71.58974 34023 ft 459 kts 334°
2026-04-27 17:45 22.88701 -71.61067 34028 ft 457 kts 334°
2026-04-27 17:45 22.94794 -71.63180 34023 ft 459 kts 334°
2026-04-27 17:46 23.00852 -71.65279 34027 ft 458 kts 333°
2026-04-27 17:46 23.06942 -71.67389 34031 ft 457 kts 333°
2026-04-27 17:47 23.12995 -71.69490 34028 ft 456 kts 333°
2026-04-27 17:47 23.19056 -71.71595 34027 ft 457 kts 333°
2026-04-27 17:48 23.25111 -71.73702 34027 ft 456 kts 333°
2026-04-27 17:48 23.31168 -71.75809 34031 ft 456 kts 334°
2026-04-27 17:49 23.37337 -71.77540 34033 ft 463 kts 340°
2026-04-27 17:49 23.43770 -71.78584 34033 ft 468 kts 345°
2026-04-27 17:50 23.50264 -71.79429 34029 ft 469 kts 345°
2026-04-27 17:50 23.59981 -71.80694 34026 ft 469 kts 345°
2026-04-27 17:51 23.66481 -71.81551 34025 ft 468 kts 345°
2026-04-27 17:51 23.72924 -71.82404 34020 ft 469 kts 345°
2026-04-27 17:52 23.79415 -71.83263 34017 ft 468 kts 345°
2026-04-27 17:52 23.85893 -71.84122 34023 ft 468 kts 345°
2026-04-27 17:53 23.92382 -71.84982 34030 ft 467 kts 344°
2026-04-27 17:53 23.98832 -71.85843 34035 ft 467 kts 345°
2026-04-27 17:54 24.05273 -71.86702 34034 ft 467 kts 345°
2026-04-27 17:54 24.11769 -71.87568 34034 ft 467 kts 345°
2026-04-27 17:55 24.18216 -71.88420 34035 ft 468 kts 345°
2026-04-27 17:55 24.23884 -71.89174 34039 ft 467 kts 345°
2026-04-27 17:56 24.30376 -71.90038 34033 ft 466 kts 345°
2026-04-27 17:56 24.36845 -71.90902 34039 ft 466 kts 345°
2026-04-27 17:57 24.43293 -71.91766 34034 ft 467 kts 345°
2026-04-27 17:57 24.49753 -71.92631 34039 ft 467 kts 345°
2026-04-27 17:58 24.56214 -71.93499 34038 ft 468 kts 346°
2026-04-27 17:58 24.62708 -71.94368 34037 ft 468 kts 346°
2026-04-27 17:59 24.69172 -71.95238 34030 ft 469 kts 345°
2026-04-27 17:59 24.75672 -71.96114 34034 ft 468 kts 346°
2026-04-27 18:00 24.82144 -71.96986 34040 ft 468 kts 346°
2026-04-27 18:00 24.88641 -71.97864 34046 ft 469 kts 346°
2026-04-27 18:01 24.95067 -71.99002 34042 ft 464 kts 340°
2026-04-27 18:01 25.01203 -72.00992 34037 ft 456 kts 333°
2026-04-27 18:02 25.06950 -72.03805 34039 ft 448 kts 325°
2026-04-27 18:02 25.12356 -72.07184 34036 ft 446 kts 323°
2026-04-27 18:03 25.17740 -72.10632 34039 ft 446 kts 323°
2026-04-27 18:03 25.23118 -72.14075 34034 ft 447 kts 323°
2026-04-27 18:04 25.28498 -72.17514 34046 ft 447 kts 323°
2026-04-27 18:04 25.33874 -72.20950 34042 ft 447 kts 323°
2026-04-27 18:05 25.39232 -72.24380 34046 ft 447 kts 323°
2026-04-27 18:05 25.44644 -72.27846 34053 ft 447 kts 323°
2026-04-27 18:06 25.50021 -72.31293 34044 ft 447 kts 323°
2026-04-27 18:06 25.55391 -72.34740 34053 ft 446 kts 323°
2026-04-27 18:07 25.59365 -72.37295 34041 ft 447 kts 324°